Time,TemperatureF,DewpointF,PressureIn,WindDirection,WindDirectionDegrees,WindSpeedMPH,WindSpeedGustMPH,Humidity,HourlyPrecipIn,Conditions,Clouds,dailyrainin,SoftwareType,DateUTC
2013-03-09 00:01:00,42.0,34.0,29.94,SSW,204,8.0,21.0,73,0.00,,,0.28,,2013-03-09 08:01:00,
2013-03-09 00:11:00,42.0,34.0,29.94,SSW,204,8.0,21.0,73,0.00,,,0.28,,2013-03-09 08:11:00,
2013-03-09 00:21:00,42.0,35.0,29.93,SSW,208,8.0,18.0,75,0.00,,,0.28,,2013-03-09 08:21:00,
2013-03-09 00:31:00,42.0,35.0,29.93,SW,230,7.0,18.0,76,0.00,,,0.28,,2013-03-09 08:31:00,
2013-03-09 00:42:00,42.0,35.0,29.93,SW,230,7.0,18.0,76,0.00,,,0.28,,2013-03-09 08:42:00,
2013-03-09 00:52:00,42.0,35.0,29.94,West,274,6.0,21.0,76,0.00,,,0.28,,2013-03-09 08:52:00,
2013-03-09 01:01:00,42.0,35.0,29.94,SW,230,9.0,19.0,75,0.00,,,0.28,,2013-03-09 09:01:00,
2013-03-09 01:11:00,42.0,35.0,29.94,SW,230,9.0,19.0,75,0.00,,,0.28,,2013-03-09 09:11:00,
2013-03-09 01:21:00,42.0,34.0,29.94,WSW,257,9.0,29.0,73,0.00,,,0.28,,2013-03-09 09:21:00,
2013-03-09 01:31:00,42.0,34.0,29.94,WSW,257,9.0,29.0,73,0.00,,,0.28,,2013-03-09 09:31:00,
2013-03-09 01:41:00,42.0,34.0,29.94,WSW,257,9.0,29.0,73,0.00,,,0.28,,2013-03-09 09:41:00,
2013-03-09 01:52:00,42.0,35.0,29.95,WNW,292,8.0,22.0,75,0.00,,,0.28,,2013-03-09 09:52:00,
2013-03-09 02:01:00,42.0,35.0,29.96,WNW,283,7.0,23.0,77,0.00,,,0.28,,2013-03-09 10:01:00,
2013-03-09 02:11:00,42.0,35.0,29.96,WNW,283,7.0,23.0,77,0.00,,,0.28,,2013-03-09 10:11:00,
2013-03-09 02:21:00,41.0,35.0,29.96,East,88,4.0,12.0,79,0.00,,,0.28,,2013-03-09 10:21:00,
2013-03-09 02:31:00,41.0,36.0,29.96,ESE,112,5.0,18.0,81,0.00,,,0.28,,2013-03-09 10:31:00,
2013-03-09 02:41:00,41.0,36.0,29.96,ESE,112,5.0,18.0,81,0.00,,,0.28,,2013-03-09 10:41:00,
2013-03-09 02:52:00,41.0,35.0,29.96,South,188,5.0,14.0,79,0.00,,,0.28,,2013-03-09 10:52:00,
2013-03-09 03:01:00,41.0,35.0,29.96,SSE,150,4.0,14.0,79,0.00,,,0.28,,2013-03-09 11:01:00,
2013-03-09 03:11:00,41.0,35.0,29.96,SSE,150,4.0,14.0,79,0.00,,,0.28,,2013-03-09 11:11:00,
2013-03-09 03:21:00,41.0,34.0,29.97,North,0,0.0,14.0,77,0.00,,,0.28,,2013-03-09 11:21:00,
2013-03-09 03:31:00,41.0,34.0,29.98,NE,40,5.0,11.0,76,0.00,,,0.28,,2013-03-09 11:31:00,
2013-03-09 03:41:00,41.0,34.0,29.98,NE,40,5.0,11.0,76,0.00,,,0.28,,2013-03-09 11:41:00,
2013-03-09 03:52:00,42.0,33.0,29.99,NNE,16,7.0,19.0,70,0.00,,,0.28,,2013-03-09 11:52:00,
2013-03-09 04:01:00,42.0,33.0,29.97,WNW,294,17.0,27.0,69,0.00,,,0.28,,2013-03-09 12:01:00,
2013-03-09 04:11:00,42.0,33.0,29.97,WNW,294,17.0,27.0,69,0.00,,,0.28,,2013-03-09 12:11:00,
2013-03-09 04:21:00,43.0,34.0,29.98,WNW,298,15.0,27.0,69,0.00,,,0.27,,2013-03-09 12:21:00,
2013-03-09 04:31:00,41.0,34.0,29.99,WNW,293,12.0,29.0,75,0.00,,,0.25,,2013-03-09 12:31:00,
2013-03-09 04:42:00,41.0,34.0,29.99,WNW,293,12.0,29.0,75,0.00,,,0.25,,2013-03-09 12:42:00,
2013-03-09 04:52:00,42.0,34.0,30.01,NW,321,4.0,24.0,72,0.00,,,0.23,,2013-03-09 12:52:00,
2013-03-09 05:02:00,42.0,33.0,30.00,WNW,300,16.0,26.0,70,0.00,,,0.22,,2013-03-09 13:02:00,
2013-03-09 05:11:00,42.0,33.0,30.00,WNW,300,16.0,26.0,70,0.00,,,0.22,,2013-03-09 13:11:00,
2013-03-09 05:21:00,42.0,34.0,30.00,NW,304,14.0,20.0,72,0.00,,,0.18,,2013-03-09 13:21:00,
2013-03-09 05:31:00,42.0,33.0,29.98,WNW,299,12.0,27.0,71,0.00,,,0.17,,2013-03-09 13:31:00,
2013-03-09 05:41:00,42.0,33.0,29.98,WNW,299,12.0,27.0,71,0.00,,,0.17,,2013-03-09 13:41:00,
2013-03-09 05:52:00,42.0,33.0,29.99,WNW,299,17.0,28.0,70,0.00,,,0.15,,2013-03-09 13:52:00,
2013-03-09 06:01:00,42.0,33.0,30.00,WNW,301,12.0,28.0,69,0.00,,,0.13,,2013-03-09 14:01:00,
2013-03-09 06:11:00,42.0,33.0,30.00,WNW,301,12.0,28.0,69,0.00,,,0.13,,2013-03-09 14:11:00,
2013-03-09 06:21:00,42.0,33.0,30.00,NW,307,16.0,33.0,69,0.00,,,0.12,,2013-03-09 14:21:00,
2013-03-09 06:31:00,42.0,33.0,30.00,NW,305,14.0,29.0,70,0.00,,,0.09,,2013-03-09 14:31:00,
2013-03-09 06:41:00,42.0,33.0,30.00,NW,305,14.0,29.0,70,0.00,,,0.09,,2013-03-09 14:41:00,
2013-03-09 06:52:00,42.0,34.0,30.01,NW,311,11.0,40.0,73,0.00,,,0.06,,2013-03-09 14:52:00,
2013-03-09 07:01:00,42.0,34.0,30.00,WNW,303,21.0,34.0,72,0.00,,,0.05,,2013-03-09 15:01:00,
2013-03-09 07:11:00,42.0,34.0,30.00,WNW,303,21.0,34.0,72,0.00,,,0.05,,2013-03-09 15:11:00,
2013-03-09 07:21:00,43.0,34.0,30.00,WNW,302,17.0,36.0,70,0.00,,,0.03,,2013-03-09 15:21:00,
2013-03-09 07:31:00,43.0,34.0,30.01,NW,324,11.0,34.0,70,0.00,,,0.02,,2013-03-09 15:31:00,
2013-03-09 07:42:00,43.0,34.0,30.01,NW,324,11.0,34.0,70,0.00,,,0.02,,2013-03-09 15:42:00,
2013-03-09 07:52:00,43.0,34.0,30.01,NW,321,14.0,28.0,71,0.00,,,0.01,,2013-03-09 15:52:00,
2013-03-09 08:01:00,43.0,34.0,30.04,WNW,303,13.0,30.0,69,0.00,,,0.01,,2013-03-09 16:01:00,
2013-03-09 08:11:00,43.0,34.0,30.04,WNW,303,13.0,30.0,69,0.00,,,0.01,,2013-03-09 16:11:00,
2013-03-09 08:21:00,43.0,34.0,30.03,NW,304,20.0,30.0,70,0.00,,,0.00,,2013-03-09 16:21:00,
2013-03-09 08:31:00,43.0,34.0,30.04,WNW,300,18.0,33.0,69,0.00,,,0.00,,2013-03-09 16:31:00,
2013-03-09 08:41:00,43.0,34.0,30.04,WNW,300,18.0,33.0,69,0.00,,,0.00,,2013-03-09 16:41:00,
2013-03-09 08:52:00,43.0,34.0,30.04,NW,308,18.0,34.0,69,0.00,,,0.00,,2013-03-09 16:52:00,
2013-03-09 09:01:00,43.0,34.0,30.05,WNW,299,15.0,32.0,69,0.00,,,0.00,,2013-03-09 17:01:00,
2013-03-09 09:11:00,43.0,34.0,30.05,WNW,299,15.0,32.0,69,0.00,,,0.00,,2013-03-09 17:11:00,
2013-03-09 09:21:00,44.0,34.0,30.06,NW,316,12.0,31.0,68,0.00,,,0.00,,2013-03-09 17:21:00,
2013-03-09 09:31:00,45.0,35.0,30.07,WNW,301,19.0,33.0,67,0.00,,,0.00,,2013-03-09 17:31:00,
2013-03-09 09:42:00,45.0,35.0,30.07,WNW,301,19.0,33.0,67,0.00,,,0.00,,2013-03-09 17:42:00,
2013-03-09 09:52:00,45.0,34.0,30.09,WNW,303,13.0,33.0,64,0.00,,,0.00,,2013-03-09 17:52:00,
2013-03-09 10:01:00,46.0,35.0,30.08,NW,308,16.0,31.0,65,0.00,,,0.00,,2013-03-09 18:01:00,
2013-03-09 10:11:00,46.0,35.0,30.08,NW,308,16.0,31.0,65,0.00,,,0.00,,2013-03-09 18:11:00,
2013-03-09 10:21:00,45.0,34.0,30.08,WNW,298,22.0,33.0,66,0.00,,,0.00,,2013-03-09 18:21:00,
2013-03-09 10:31:00,46.0,35.0,30.08,WNW,297,20.0,34.0,66,0.00,,,0.00,,2013-03-09 18:31:00,
2013-03-09 10:41:00,46.0,35.0,30.08,WNW,297,20.0,34.0,66,0.00,,,0.00,,2013-03-09 18:41:00,
2013-03-09 10:52:00,47.0,35.0,30.09,WNW,303,18.0,32.0,64,0.00,,,0.00,,2013-03-09 18:52:00,
2013-03-09 11:01:00,47.0,35.0,30.10,WNW,302,17.0,32.0,64,0.00,,,0.00,,2013-03-09 19:01:00,
2013-03-09 11:11:00,47.0,35.0,30.10,WNW,302,17.0,32.0,64,0.00,,,0.00,,2013-03-09 19:11:00,
2013-03-09 11:21:00,47.0,35.0,30.11,WNW,302,19.0,33.0,63,0.00,,,0.00,,2013-03-09 19:21:00,
2013-03-09 11:31:00,48.0,36.0,30.11,WNW,302,19.0,31.0,63,0.00,,,0.00,,2013-03-09 19:31:00,
2013-03-09 11:41:00,48.0,36.0,30.11,WNW,302,19.0,31.0,63,0.00,,,0.00,,2013-03-09 19:41:00,
2013-03-09 11:52:00,47.0,35.0,30.11,WNW,299,20.0,33.0,63,0.00,,,0.00,,2013-03-09 19:52:00,
2013-03-09 12:01:00,47.0,36.0,30.11,WNW,301,23.0,34.0,65,0.00,,,0.00,,2013-03-09 20:01:00,
2013-03-09 12:11:00,47.0,36.0,30.11,WNW,301,23.0,34.0,65,0.00,,,0.00,,2013-03-09 20:11:00,
2013-03-09 12:21:00,48.0,36.0,30.10,WNW,301,22.0,33.0,63,0.00,,,0.00,,2013-03-09 20:21:00,
2013-03-09 12:31:00,48.0,35.0,30.10,WNW,301,22.0,33.0,61,0.00,,,0.00,,2013-03-09 20:31:00,
2013-03-09 12:41:00,48.0,35.0,30.10,WNW,301,22.0,33.0,61,0.00,,,0.00,,2013-03-09 20:41:00,
2013-03-09 12:52:00,48.0,35.0,30.10,WNW,300,19.0,32.0,61,0.00,,,0.00,,2013-03-09 20:52:00,
2013-03-09 13:01:00,48.0,36.0,30.10,WNW,301,21.0,34.0,62,0.00,,,0.00,,2013-03-09 21:01:00,
2013-03-09 13:11:00,48.0,36.0,30.10,WNW,301,21.0,34.0,62,0.00,,,0.00,,2013-03-09 21:11:00,
2013-03-09 13:21:00,48.0,36.0,30.10,WNW,302,22.0,38.0,62,0.00,,,0.00,,2013-03-09 21:21:00,
2013-03-09 13:31:00,48.0,36.0,30.10,WNW,298,22.0,36.0,62,0.00,,,0.00,,2013-03-09 21:31:00,
2013-03-09 13:41:00,48.0,36.0,30.10,WNW,298,22.0,36.0,62,0.00,,,0.00,,2013-03-09 21:41:00,
2013-03-09 13:52:00,49.0,36.0,30.09,WNW,302,22.0,36.0,60,0.00,,,0.00,,2013-03-09 21:52:00,
2013-03-09 14:01:00,49.0,36.0,30.09,NW,305,24.0,35.0,60,0.00,,,0.00,,2013-03-09 22:01:00,
2013-03-09 14:11:00,49.0,36.0,30.09,NW,305,24.0,35.0,60,0.00,,,0.00,,2013-03-09 22:11:00,
2013-03-09 14:21:00,49.0,35.0,30.09,WNW,298,22.0,36.0,59,0.00,,,0.00,,2013-03-09 22:21:00,
2013-03-09 14:32:00,49.0,36.0,30.09,WNW,301,24.0,36.0,60,0.00,,,0.00,,2013-03-09 22:32:00,
2013-03-09 14:41:00,49.0,36.0,30.09,WNW,301,24.0,36.0,60,0.00,,,0.00,,2013-03-09 22:41:00,
2013-03-09 14:51:00,49.0,34.0,30.11,WNW,299,24.0,33.0,57,0.00,,,0.00,,2013-03-09 22:51:00,
2013-03-09 15:01:00,49.0,34.0,30.11,WNW,299,24.0,34.0,57,0.00,,,0.00,,2013-03-09 23:01:00,
2013-03-09 15:11:00,49.0,34.0,30.11,WNW,299,24.0,34.0,57,0.00,,,0.00,,2013-03-09 23:11:00,
2013-03-09 15:21:00,48.0,34.0,30.11,WNW,303,23.0,39.0,59,0.00,,,0.00,,2013-03-09 23:21:00,
2013-03-09 15:31:00,49.0,35.0,30.11,WNW,298,21.0,36.0,58,0.00,,,0.00,,2013-03-09 23:31:00,
2013-03-09 15:41:00,49.0,35.0,30.11,WNW,298,21.0,36.0,58,0.00,,,0.00,,2013-03-09 23:41:00,
2013-03-09 15:52:00,48.0,34.0,30.12,WNW,303,23.0,34.0,58,0.00,,,0.00,,2013-03-09 23:52:00,
2013-03-09 16:01:00,48.0,34.0,30.13,NW,306,23.0,29.0,59,0.00,,,0.00,,2013-03-10 00:01:00,
2013-03-09 16:11:00,48.0,34.0,30.13,NW,306,23.0,29.0,59,0.00,,,0.00,,2013-03-10 00:11:00,
2013-03-09 16:21:00,47.0,34.0,30.12,WNW,299,24.0,35.0,60,0.00,,,0.00,,2013-03-10 00:21:00,
2013-03-09 16:31:00,46.0,33.0,30.12,WNW,300,24.0,34.0,60,0.00,,,0.00,,2013-03-10 00:31:00,
2013-03-09 16:42:00,46.0,33.0,30.12,WNW,300,24.0,34.0,60,0.00,,,0.00,,2013-03-10 00:42:00,
2013-03-09 16:51:00,46.0,33.0,30.13,WNW,301,24.0,33.0,61,0.00,,,0.00,,2013-03-10 00:51:00,
2013-03-09 17:01:00,46.0,34.0,30.13,WNW,295,22.0,34.0,62,0.00,,,0.00,,2013-03-10 01:01:00,
2013-03-09 17:11:00,46.0,34.0,30.13,WNW,295,22.0,34.0,62,0.00,,,0.00,,2013-03-10 01:11:00,
2013-03-09 17:21:00,46.0,34.0,30.13,WNW,298,23.0,35.0,62,0.00,,,0.00,,2013-03-10 01:21:00,
2013-03-09 17:31:00,46.0,33.0,30.14,NW,305,21.0,31.0,61,0.00,,,0.00,,2013-03-10 01:31:00,
2013-03-09 17:41:00,46.0,33.0,30.14,NW,305,21.0,31.0,61,0.00,,,0.00,,2013-03-10 01:41:00,
2013-03-09 17:52:00,44.0,33.0,30.15,WNW,301,22.0,33.0,64,0.00,,,0.00,,2013-03-10 01:52:00,
2013-03-09 18:01:00,44.0,33.0,30.15,WNW,303,22.0,33.0,65,0.00,,,0.00,,2013-03-10 02:01:00,
2013-03-09 18:11:00,44.0,33.0,30.15,WNW,303,22.0,33.0,65,0.00,,,0.00,,2013-03-10 02:11:00,
2013-03-09 18:22:00,44.0,32.0,30.16,WNW,301,21.0,30.0,63,0.00,,,0.00,,2013-03-10 02:22:00,
2013-03-09 18:31:00,44.0,33.0,30.16,WNW,301,21.0,32.0,64,0.00,,,0.00,,2013-03-10 02:31:00,
2013-03-09 18:41:00,44.0,33.0,30.16,WNW,301,21.0,32.0,64,0.00,,,0.00,,2013-03-10 02:41:00,
2013-03-09 18:52:00,44.0,32.0,30.17,WNW,300,21.0,29.0,63,0.00,,,0.00,,2013-03-10 02:52:00,
2013-03-09 19:01:00,43.0,32.0,30.17,WNW,299,19.0,29.0,65,0.00,,,0.00,,2013-03-10 03:01:00,
2013-03-09 19:11:00,44.0,33.0,30.17,WNW,302,18.0,29.0,64,0.00,,,0.00,,2013-03-10 03:11:00,
2013-03-09 19:21:00,44.0,33.0,30.17,WNW,302,18.0,29.0,64,0.00,,,0.00,,2013-03-10 03:21:00,
2013-03-09 19:31:00,45.0,32.0,30.17,WNW,301,14.0,28.0,60,0.00,,,0.00,,2013-03-10 03:31:00,
2013-03-09 19:41:00,45.0,32.0,30.17,WNW,301,14.0,28.0,60,0.00,,,0.00,,2013-03-10 03:41:00,
2013-03-09 19:52:00,46.0,32.0,30.19,WNW,301,11.0,19.0,57,0.00,,,0.00,,2013-03-10 03:52:00,
2013-03-09 20:01:00,46.0,31.0,30.19,WNW,296,12.0,20.0,56,0.00,,,0.00,,2013-03-10 04:01:00,
2013-03-09 20:11:00,46.0,31.0,30.19,WNW,296,12.0,20.0,56,0.00,,,0.00,,2013-03-10 04:11:00,
2013-03-09 20:21:00,46.0,31.0,30.20,WNW,302,7.0,17.0,55,0.00,,,0.00,,2013-03-10 04:21:00,
2013-03-09 20:31:00,46.0,31.0,30.20,WNW,291,10.0,16.0,55,0.00,,,0.00,,2013-03-10 04:31:00,
2013-03-09 20:41:00,46.0,31.0,30.20,WNW,291,10.0,16.0,55,0.00,,,0.00,,2013-03-10 04:41:00,
2013-03-09 20:52:00,46.0,30.0,30.20,WNW,295,5.0,14.0,54,0.00,,,0.00,,2013-03-10 04:52:00,
2013-03-09 21:01:00,47.0,31.0,30.21,WNW,298,6.0,14.0,53,0.00,,,0.00,,2013-03-10 05:01:00,
2013-03-09 21:11:00,47.0,31.0,30.21,WNW,298,6.0,14.0,53,0.00,,,0.00,,2013-03-10 05:11:00,
2013-03-09 21:21:00,47.0,30.0,30.21,NW,317,4.0,13.0,52,0.00,,,0.00,,2013-03-10 05:21:00,
2013-03-09 21:31:00,47.0,30.0,30.22,NW,326,3.0,11.0,51,0.00,,,0.00,,2013-03-10 05:31:00,
2013-03-09 21:42:00,47.0,29.0,30.22,NW,317,4.0,14.0,50,0.00,,,0.00,,2013-03-10 05:42:00,
2013-03-09 21:52:00,47.0,29.0,30.22,NW,317,4.0,14.0,50,0.00,,,0.00,,2013-03-10 05:52:00,
2013-03-09 22:01:00,47.0,29.0,30.23,NW,304,6.0,14.0,50,0.00,,,0.00,,2013-03-10 06:01:00,
2013-03-09 22:11:00,47.0,29.0,30.24,WNW,301,6.0,12.0,50,0.00,,,0.00,,2013-03-10 06:11:00,
2013-03-09 22:21:00,47.0,29.0,30.24,WNW,301,6.0,12.0,50,0.00,,,0.00,,2013-03-10 06:21:00,
2013-03-09 22:31:00,47.0,29.0,30.23,WNW,300,5.0,11.0,50,0.00,,,0.00,,2013-03-10 06:31:00,
2013-03-09 22:41:00,47.0,29.0,30.24,WNW,300,5.0,10.0,49,0.00,,,0.00,,2013-03-10 06:41:00,
2013-03-09 22:52:00,47.0,29.0,30.24,WNW,300,5.0,10.0,49,0.00,,,0.00,,2013-03-10 06:52:00,
2013-03-09 23:01:00,47.0,28.0,30.24,WNW,297,6.0,13.0,48,0.00,,,0.00,,2013-03-10 07:01:00,
2013-03-09 23:11:00,46.0,28.0,30.24,NW,306,1.0,11.0,49,0.00,,,0.00,,2013-03-10 07:11:00,
2013-03-09 23:21:00,46.0,28.0,30.24,NW,306,1.0,11.0,49,0.00,,,0.00,,2013-03-10 07:21:00,
2013-03-09 23:31:00,46.0,28.0,30.24,WNW,300,2.0,9.0,50,0.00,,,0.00,,2013-03-10 07:31:00,
2013-03-09 23:41:00,45.0,28.0,30.24,NNW,331,1.0,5.0,51,0.00,,,0.00,,2013-03-10 07:41:00,
2013-03-09 23:52:00,45.0,28.0,30.24,NNW,331,1.0,5.0,51,0.00,,,0.00,,2013-03-10 07:52:00,